Location: Clanezzo
(45.7500°N, 9.6000°E)
Time: 05:30:19
(UTC+00:00)

Gbstr 26 Del rocket - Pass Details

Date: 04 October 2021
Orbit: 492 x 1263 km, 51.8° (Epoch: 20 October)

Event Time Altitude Azimuth Distance (km) Brightness Sun altitude
Rises 22:20:17 0° 297° (WNW) 4,120 7.7 -47.6°
Reaches altitude 10° 22:23:03 10° 298° (WNW) 3,203 7.0 -47.7°
Enters shadow 22:24:53 19° 299° (WNW) 2,616 6.4 -47.8°
